Tracking 19832 objects as of 24-Aug-2019
HD Live streaming from Space Station
objects crossing your sky now

INTELSAT 904

Track INTELSAT 904 now!
INTELSAT 904 is classified as:


NORAD ID: 27380
Int'l Code: 2002-007A
Perigee: 35,813.0 km
Apogee: 35,844.8 km
Inclination: 0.8 °
Period: 1,437.9 minutes
Semi major axis: 42199 km
RCS: 11.3214 m2 (large)
Launch date: February 23, 2002
Source: International Telecommunications Satellite Organization (ITSO)
Launch site: FRENCH GUIANA (FRGUI)

76 C-band, 22 Ku-band, broadcasting, business services, direct-to-home TV broadcasting, telecommunications, VSAT networks; Indian Ocean region.
aabbcc
Your satellite tracking list
Your tracking list is empty




NASA's NSSDC Master Catalog

Two Line Element Set (TLE):
1 27380U 02007A   19235.85276862 -.00000220 +00000-0 +00000-0 0  9998
2 27380 000.7563 096.5529 0003775 084.7371 070.0289 01.00146483026800
Source of the keplerian elements: AFSPC